Dover AFB, DE

3:21 PM EDT on March 27, 2017 (GMT -0400)
Dover Air Force Base

Weather History for KDOV - October, 2012

Change the Weather History Date:

Saturday, October 6, 2012

  Actual Average Record
Temperature  
Mean Temperature 68 °F -  
Max Temperature 82 °F 73 °F 89 °F (1959)
Min Temperature 55 °F 51 °F 32 °F (1965)
Cooling Degree Days 3    
Growing Degree Days 18 (Base 50)    
Moisture  
Dew Point 57 °F    
Average Humidity 69    
Maximum Humidity 92    
Minimum Humidity 48    
Precipitation  
Precipitation 0.00 in - - ()
Sea Level Pressure  
Sea Level Pressure 29.90 in    
Wind  
Wind Speed 11 mph (WSW)    
Max Wind Speed 18 mph    
Max Gust Speed 23 mph    
Visibility 10 miles    
Events      
Averages and records for this station are not official NWS values.
T = Trace of Precipitation, MM = Missing Value Source: NWS Daily Summary

Daily Weather History Graph

Daily Weather History Graph

Search for Another Location

Airport or City:

Trip Planner

Search our weather history database for the weather conditions in past years. The results will help you decide how hot, cold, wet, or windy it might be!

Date:

Astronomy

Oct. 06, 2012 Rise Set
Actual Time 7:03 AM EDT 6:35 PM EDT
Civil Twilight 6:36 AM EDT 7:02 PM EDT
Nautical Twilight 6:05 AM EDT 7:33 PM EDT
Astronomical Twilight 5:34 AM EDT 8:04 PM EDT
Moon 10:51 PM EDT (10/6) 12:53 PM EDT (10/6)
Length of Visible Light 12h 26m
Length of Day
11h 32m
Waning Gibbous, 65% of the Moon is Illuminated
Oct 6
Waning Gibbous
Oct 8
Last Quarter
Oct 15
New
Oct 21
First Quarter
Oct 29
Full

Hourly Weather History & Observations

Time (EDT) Temp. Heat Index Dew Point Humidity Pressure Visibility Wind Dir Wind Speed Gust Speed Precip Events Conditions
12:55 AM 64.4 °F - 57.4 °F 78% 29.95 in 10.0 mi SSW 8.1 mph - N/A   Clear
1:55 AM 65.3 °F - 59.0 °F 80% 29.94 in 10.0 mi SSW 10.4 mph - N/A   Clear
2:55 AM 65.8 °F - 61.3 °F 85% 29.91 in 10.0 mi South 10.4 mph - N/A   Clear
3:55 AM 65.3 °F - 61.9 °F 89% 29.91 in 10.0 mi SSW 11.5 mph - N/A   Clear
4:55 AM 64.9 °F - 62.1 °F 90% 29.90 in 10.0 mi SSW 9.2 mph - N/A   Clear
5:55 AM 64.8 °F - 62.1 °F 91% 29.90 in 10.0 mi SSW 9.2 mph - N/A   Clear
6:55 AM 64.4 °F - 62.1 °F 92% 29.89 in 10.0 mi SSW 9.2 mph - N/A   Clear
7:55 AM 65.1 °F - 62.4 °F 91% 29.89 in 10.0 mi South 8.1 mph - N/A   Clear
8:55 AM 68.7 °F - 62.8 °F 81% 29.87 in 10.0 mi South 11.5 mph - N/A   Clear
9:55 AM 73.2 °F - 63.3 °F 71% 29.86 in 10.0 mi SSW 13.8 mph 19.6 mph N/A   Clear
10:55 AM 75.7 °F - 62.2 °F 63% 29.84 in 10.0 mi SSW 12.7 mph 21.9 mph N/A   Scattered Clouds
11:55 AM 79.9 °F - 62.1 °F 54% 29.83 in 10.0 mi SSW 18.4 mph - N/A   Clear
12:55 PM 81.5 °F 82.1 °F 60.6 °F 49% 29.80 in 10.0 mi WSW 15.0 mph 20.7 mph N/A   Partly Cloudy
1:55 PM 81.9 °F 82.3 °F 60.4 °F 48% 29.80 in 10.0 mi West 12.7 mph - N/A   Clear
2:55 PM 78.3 °F - 59.4 °F 52% 29.82 in 10.0 mi West 17.3 mph - N/A   Mostly Cloudy
3:55 PM 75.4 °F - 59.2 °F 57% 29.83 in 10.0 mi WNW 15.0 mph - N/A   Mostly Cloudy
4:55 PM 71.6 °F - 56.8 °F 60% 29.86 in 10.0 mi WNW 16.1 mph 23.0 mph N/A   Overcast
5:55 PM 70.5 °F - 57.0 °F 62% 29.88 in 10.0 mi NW 13.8 mph - N/A   Overcast
6:55 PM 66.7 °F - 51.6 °F 58% 29.91 in 10.0 mi NW 13.8 mph - N/A   Mostly Cloudy
7:55 PM 63.3 °F - 49.6 °F 61% 29.95 in 10.0 mi NNW 18.4 mph - N/A   Mostly Cloudy
8:55 PM 59.5 °F - 45.3 °F 59% 29.98 in 10.0 mi NNW 12.7 mph - N/A   Partly Cloudy
9:55 PM 57.7 °F - 44.6 °F 62% 30.01 in 10.0 mi NW 11.5 mph - N/A   Clear
10:55 PM 55.9 °F - 44.4 °F 65% 30.02 in 10.0 mi NW 9.2 mph - N/A   Partly Cloudy
11:55 PM 55.2 °F - 43.9 °F 66% 30.03 in 10.0 mi NW 6.9 mph - N/A   Scattered Clouds